Newcastle, WY

8:54 AM MST on December 14, 2019 (GMT -0700)
Mondell

Weather History for KECS - November, 2019

Change the Weather History Date:

Wednesday, November 13, 2019

  Actual Average (WUND) Record (WUND)
Temperature  
Mean Temperature 36 °F -  
Max Temperature 39 °F - - (-1)
Min Temperature 32 °F - - (-1)
Degree Days  
Heating Degree Days 30    
Moisture  
Dew Point 32 °F    
Average Humidity 92    
Maximum Humidity 100    
Minimum Humidity 70    
Precipitation  
Precipitation 0.00 in - - ()
Sea Level Pressure  
Sea Level Pressure 30.05 in    
Wind  
Wind Speed 8 mph ()    
Max Wind Speed 20 mph    
Max Gust Speed 26 mph    
Visibility 9.6 miles    
Events Rain , Snow    
Averages and records for this station are not official NWS values.
T = Trace of Precipitation, MM = Missing Value Source: Averaged Metar Reports

Daily Weather History Graph

Daily Weather History Graph

Search for Another Location

Airport or City:

Astronomy

Nov. 13, 2019 Rise Set
Actual Time 6:49 AM MST 4:33 PM MST
Civil Twilight 6:18 AM MST 5:04 PM MST
Nautical Twilight 5:43 AM MST 5:39 PM MST
Astronomical Twilight 5:09 AM MST 6:12 PM MST
Moon 5:37 PM MST (11/13) 7:45 AM MST (11/13)
Length of Visible Light 10h 46m
Length of Day
9h 44m
Full, 98% of the Moon is Illuminated
Nov 13
Full
Nov 19
Last Quarter
Nov 26
New
Dec 3
First Quarter
Dec 11
Full

Hourly Weather History & Observations

Time (MST) Temp. Windchill Dew Point Humidity Pressure Visibility Wind Dir Wind Speed Gust Speed Precip Events Conditions
12:15 AM 32.0 °F - 26.6 °F 80% 29.82 in 10.0 mi Calm Calm - N/A   Scattered Clouds
12:35 AM 35.6 °F 29.2 °F 26.6 °F 70% 29.81 in 10.0 mi North 8.1 mph - N/A   Mostly Cloudy
12:55 AM 33.8 °F 30.8 °F 26.6 °F 75% 29.84 in 10.0 mi NW 3.5 mph - N/A   Overcast
1:15 AM 35.6 °F 32.8 °F 26.6 °F 70% 29.84 in 10.0 mi NNW 3.5 mph - N/A   Overcast
1:35 AM 35.6 °F 32.8 °F 26.6 °F 70% 29.85 in 10.0 mi WNW 3.5 mph - N/A   Overcast
1:55 AM 33.8 °F - 26.6 °F 75% 29.86 in 10.0 mi Calm Calm - N/A   Overcast
2:15 AM 35.6 °F 30.7 °F 28.4 °F 75% 29.86 in 10.0 mi NW 5.8 mph - N/A   Overcast
2:35 AM 39.2 °F 32.0 °F 32.0 °F 75% 29.87 in 10.0 mi NNW 11.5 mph - N/A Rain Rain
2:55 AM 37.4 °F 30.8 °F 32.0 °F 81% 29.87 in 10.0 mi NW 9.2 mph 16.1 mph N/A Rain Light Rain
3:15 AM 35.6 °F 28.6 °F 32.0 °F 87% 29.88 in 10.0 mi NW 9.2 mph - N/A   Drizzle
3:35 AM 33.8 °F 26.4 °F 33.8 °F 100% 29.89 in 10.0 mi NW 9.2 mph - N/A   Drizzle
3:55 AM 33.8 °F 25.8 °F 33.8 °F 100% 29.90 in 10.0 mi NW 10.4 mph - N/A   Light Drizzle
4:15 AM 33.8 °F 25.3 °F 33.8 °F 100% 29.91 in 10.0 mi NW 11.5 mph - N/A   Light Drizzle
4:35 AM 33.8 °F 25.3 °F 33.8 °F 100% 29.93 in 10.0 mi NW 11.5 mph - N/A   Light Drizzle
4:55 AM 33.8 °F 24.8 °F 32.0 °F 93% 29.94 in 10.0 mi NW 12.7 mph 16.1 mph N/A   Drizzle
5:35 AM 33.8 °F 25.3 °F 32.0 °F 93% 29.95 in 5.0 mi NW 11.5 mph - N/A   Overcast
5:55 AM 33.8 °F 26.4 °F 32.0 °F 93% 29.96 in 10.0 mi NW 9.2 mph 17.3 mph N/A   Overcast
6:15 AM 32.0 °F 23.0 °F 32.0 °F 100% 29.97 in 7.0 mi NW 11.5 mph 16.1 mph N/A   Overcast
6:35 AM 33.8 °F 23.2 °F 32.0 °F 93% 29.97 in 10.0 mi NW 17.3 mph 24.2 mph N/A   Mostly Cloudy
6:55 AM 32.0 °F 21.2 °F 32.0 °F 100% 29.98 in 10.0 mi NW 16.1 mph 20.7 mph N/A   Mostly Cloudy
7:15 AM 32.0 °F 22.1 °F 32.0 °F 100% 30.00 in 10.0 mi NW 13.8 mph 21.9 mph N/A   Overcast
7:35 AM 32.0 °F 21.6 °F 32.0 °F 100% 30.00 in 10.0 mi NW 15.0 mph 21.9 mph N/A   Overcast
7:55 AM 32.0 °F 22.5 °F 32.0 °F 100% 30.02 in 10.0 mi NW 12.7 mph - N/A   Overcast
8:15 AM 32.0 °F 23.0 °F 32.0 °F 100% 30.03 in 10.0 mi NW 11.5 mph - N/A   Mostly Cloudy
8:35 AM 33.8 °F 25.3 °F 32.0 °F 93% 30.04 in 10.0 mi NW 11.5 mph 23.0 mph N/A   Overcast
8:55 AM 33.8 °F 24.3 °F 32.0 °F 93% 30.06 in 10.0 mi NW 13.8 mph 18.4 mph N/A   Overcast
9:15 AM 33.8 °F 23.5 °F 32.0 °F 93% 30.06 in 10.0 mi NW 16.1 mph 23.0 mph N/A   Overcast
9:35 AM 33.8 °F 24.3 °F 32.0 °F 93% 30.07 in 4.0 mi NW 13.8 mph 20.7 mph N/A Snow Light Snow
9:55 AM 33.8 °F 24.3 °F 32.0 °F 93% 30.08 in 7.0 mi NW 13.8 mph 18.4 mph N/A   Overcast
10:15 AM 33.8 °F 24.8 °F 32.0 °F 93% 30.09 in 2.5 mi NW 12.7 mph - N/A Rain Light Rain
10:35 AM 33.8 °F 23.2 °F 33.8 °F 100% 30.09 in 5.0 mi WNW 17.3 mph - N/A   Light Drizzle
10:55 AM 35.6 °F 28.0 °F 32.0 °F 87% 30.09 in 10.0 mi NW 10.4 mph 20.7 mph N/A   Overcast
11:15 AM 35.6 °F 25.5 °F 32.0 °F 87% 30.09 in 10.0 mi WNW 17.3 mph 23.0 mph N/A   Overcast
11:55 AM 35.6 °F 25.5 °F 32.0 °F 87% 30.08 in 10.0 mi NW 17.3 mph 24.2 mph N/A   Overcast
12:15 PM 35.6 °F 27.1 °F 32.0 °F 87% 30.07 in 10.0 mi NW 12.7 mph 24.2 mph N/A   Overcast
12:35 PM 37.4 °F 28.2 °F 32.0 °F 81% 30.07 in 10.0 mi NW 16.1 mph 25.3 mph N/A   Overcast
12:55 PM 35.6 °F 24.8 °F 32.0 °F 87% 30.07 in 10.0 mi WNW 19.6 mph 26.5 mph N/A   Overcast
1:15 PM 37.4 °F 27.8 °F 32.0 °F 81% 30.07 in 10.0 mi WNW 17.3 mph 24.2 mph N/A   Overcast
1:35 PM 35.6 °F 25.5 °F 32.0 °F 87% 30.07 in 10.0 mi WNW 17.3 mph 21.9 mph N/A   Light Drizzle
1:55 PM 35.6 °F 25.9 °F 32.0 °F 87% 30.08 in 10.0 mi NW 16.1 mph 20.7 mph N/A   Overcast
2:15 PM 35.6 °F 27.1 °F 32.0 °F 87% 30.08 in 10.0 mi NW 12.7 mph 20.7 mph N/A   Overcast
2:35 PM 35.6 °F 26.2 °F 32.0 °F 87% 30.08 in 10.0 mi NW 15.0 mph - N/A   Overcast
2:55 PM 37.4 °F 28.9 °F 32.0 °F 81% 30.08 in 10.0 mi NW 13.8 mph - N/A   Overcast
3:15 PM 35.6 °F 29.2 °F 32.0 °F 87% 30.09 in 10.0 mi NW 8.1 mph - N/A   Mostly Cloudy
3:35 PM 35.6 °F 29.2 °F 32.0 °F 87% 30.10 in 10.0 mi NW 8.1 mph - N/A   Overcast
3:55 PM 33.8 °F 28.6 °F 32.0 °F 93% 30.10 in 10.0 mi NW 5.8 mph - N/A   Mostly Cloudy
4:15 PM 33.8 °F 27.7 °F 32.0 °F 93% 30.10 in 10.0 mi NW 6.9 mph - N/A   Scattered Clouds
4:35 PM 32.0 °F 27.5 °F 32.0 °F 100% 30.10 in 10.0 mi NW 4.6 mph - N/A   Clear
4:55 PM 32.0 °F 27.5 °F 32.0 °F 100% 30.10 in 10.0 mi North 4.6 mph - N/A   Clear
5:15 PM 32.0 °F 26.4 °F 32.0 °F 100% 30.10 in 10.0 mi North 5.8 mph - N/A   Clear
5:35 PM 32.0 °F 26.4 °F 32.0 °F 100% 30.11 in 10.0 mi NNW 5.8 mph - N/A   Clear
5:55 PM 32.0 °F - 32.0 °F 100% 30.13 in 10.0 mi Calm Calm - N/A   Scattered Clouds
6:15 PM 32.0 °F 26.4 °F 32.0 °F 100% 30.13 in 10.0 mi NNW 5.8 mph - N/A   Mostly Cloudy
6:35 PM 32.0 °F 26.4 °F 32.0 °F 100% 30.13 in 10.0 mi North 5.8 mph - N/A   Mostly Cloudy
6:55 PM 32.0 °F - 32.0 °F 100% 30.13 in 10.0 mi Calm Calm - N/A   Clear
7:15 PM 32.0 °F - 30.2 °F 93% 30.14 in 10.0 mi Calm Calm - N/A   Clear
7:35 PM 32.0 °F - 30.2 °F 93% 30.15 in 10.0 mi Calm Calm - N/A   Mostly Cloudy
7:55 PM 32.0 °F 28.7 °F 32.0 °F 100% 30.15 in 10.0 mi North 3.5 mph - N/A   Overcast
8:15 PM 32.0 °F 28.7 °F 32.0 °F 100% 30.15 in 10.0 mi NNW 3.5 mph - N/A   Overcast
8:35 PM 32.0 °F 28.7 °F 32.0 °F 100% 30.16 in 10.0 mi North 3.5 mph - N/A   Overcast
8:55 PM 32.0 °F - 32.0 °F 100% 30.17 in 10.0 mi Calm Calm - N/A   Overcast
9:15 PM 32.0 °F 27.5 °F 32.0 °F 100% 30.17 in 10.0 mi NE 4.6 mph - N/A   Overcast
9:35 PM 32.0 °F 28.7 °F 32.0 °F 100% 30.19 in 10.0 mi West 3.5 mph - N/A   Overcast
9:55 PM 32.0 °F - 32.0 °F 100% 30.19 in 10.0 mi Calm Calm - N/A   Overcast
10:15 PM 32.0 °F - 32.0 °F 100% 30.19 in 10.0 mi Calm Calm - N/A   Overcast
10:35 PM 32.0 °F - 32.0 °F 100% 30.19 in 10.0 mi Calm Calm - N/A   Overcast
10:55 PM 32.0 °F - 32.0 °F 100% 30.19 in 10.0 mi Calm Calm - N/A   Overcast
11:15 PM 32.0 °F - 32.0 °F 100% 30.20 in 10.0 mi Calm Calm - N/A   Overcast
11:35 PM 32.0 °F - 32.0 °F 100% 30.20 in 10.0 mi Calm Calm - N/A   Light Drizzle
11:55 PM 32.0 °F 28.7 °F 32.0 °F 100% 30.20 in 10.0 mi North 3.5 mph - N/A   Overcast